TimePDT,TemperatureF,Dew PointF,Humidity,Sea Level PressureIn,VisibilityMPH,Wind Direction,Wind SpeedMPH,Gust SpeedMPH,PrecipitationIn,Events,Conditions,WindDirDegrees,DateUTC
12:53 AM,79.0,57.0,47,29.84,10.0,Calm,Calm,-,N/A,,Clear,0,2014-07-14 07:53:00
1:53 AM,82.0,57.0,42,29.83,10.0,ESE,3.5,-,N/A,,Clear,110,2014-07-14 08:53:00
2:53 AM,79.0,57.0,47,29.83,10.0,Calm,Calm,-,N/A,,Clear,0,2014-07-14 09:53:00
3:53 AM,75.0,62.1,64,29.83,10.0,West,3.5,-,N/A,,Clear,270,2014-07-14 10:53:00
4:53 AM,73.0,61.0,66,29.83,10.0,West,3.5,-,N/A,,Clear,280,2014-07-14 11:53:00
5:53 AM,73.0,59.0,61,29.83,10.0,Calm,Calm,-,N/A,,Clear,0,2014-07-14 12:53:00
6:53 AM,75.9,57.0,52,29.83,10.0,Calm,Calm,-,N/A,,Clear,0,2014-07-14 13:53:00
7:53 AM,82.9,57.0,41,29.84,10.0,Calm,Calm,-,N/A,,Clear,0,2014-07-14 14:53:00
8:53 AM,84.0,55.9,38,29.86,10.0,West,5.8,-,N/A,,Clear,280,2014-07-14 15:53:00
9:53 AM,89.1,55.0,31,29.85,10.0,Calm,Calm,-,N/A,,Clear,0,2014-07-14 16:53:00
10:53 AM,93.0,57.9,31,29.85,10.0,Variable,3.5,-,N/A,,Clear,0,2014-07-14 17:53:00
11:53 AM,95.0,59.0,30,29.85,10.0,Calm,Calm,-,N/A,,Clear,0,2014-07-14 18:53:00
1:53 PM,102.9,48.9,16,29.82,10.0,Variable,6.9,-,N/A,,Clear,0,2014-07-14 20:53:00
3:53 PM,107.1,51.1,16,29.80,10.0,SSW,8.1,-,N/A,,Clear,210,2014-07-14 22:53:00
4:53 PM,107.1,53.1,17,29.78,10.0,South,10.4,-,N/A,,Clear,170,2014-07-14 23:53:00
5:53 PM,106.0,51.1,16,29.78,10.0,South,12.7,-,N/A,,Partly Cloudy,170,2014-07-15 00:53:00
6:53 PM,102.9,54.0,20,29.80,10.0,SSE,13.8,-,N/A,,Mostly Cloudy,150,2014-07-15 01:53:00
7:53 PM,98.1,55.9,24,29.81,10.0,SE,9.2,-,N/A,,Clear,140,2014-07-15 02:53:00
8:53 PM,95.0,42.1,16,29.81,10.0,SE,10.4,-,N/A,,Clear,140,2014-07-15 03:53:00
9:53 PM,88.0,51.1,28,29.82,10.0,SE,11.5,-,N/A,,Clear,130,2014-07-15 04:53:00
10:53 PM,86.0,46.9,26,29.83,10.0,ESE,5.8,-,N/A,,Clear,110,2014-07-15 05:53:00
11:53 PM,84.0,48.0,28,29.84,10.0,SE,10.4,-,N/A,,Clear,140,2014-07-15 06:53:00